Погода в Эммене

Нидерланды     52°47′25″N   6°53′46″E
темп.,
°C
ветер,
м/с
пор.,
м/с
влажн.,
%
обл.,
%
осадки,
мм/ч
давл.,
гПа
погр.,
м
10 августа, ср
ср1023:00+15ссв497710 0.0 1028162
02:00+13св369379 0.0 1028117
05:00+13св349474 0.0 102872
08:00+16всв34775 0.0 1028144
11:00+23всв34485 0.0 1027711
14:00+27св44345 0.0 10261607
17:00+28св44313 0.0 10241842
20:00+25ссв36440 0.0 1023133
11 августа, чт
чт1123:00+18св410675 0.0 1024179
02:00+15всв488010 0.0 1024131
05:00+15в33740 0.0 102332
08:00+19всв34560 0.0 1024113
11:00+26всв34340 0.0 1023676
14:00+30всв44250 0.0 10221856
17:00+31св44225 0.0 10202129
20:00+27ссв47365 0.0 1020147
12 августа, пт
пт1223:00+19св411565 0.0 1021196
02:00+17всв376655 0.0 1021107
05:00+17в335911 0.0 102032
08:00+20всв345150 0.0 1020120
11:00+28всв44285 0.0 1020680
14:00+32всв45222 0.0 10182033
17:00+32св55225 0.0 10172265
20:00+28св48315 0.0 1017163
13 августа, сб
сб1323:00+21всв410515 0.0 1018156
02:00+19в34455 0.0 101841
05:00+18вюв33420 0.0 101823
08:00+21вюв24410 0.0 1018105
11:00+30юв35240 0.0 10181784
14:00+33вюв44200 0.0 10182704
17:00+33в44200 0.0 10172872
20:00+29в36300 0.0 1017109
14 августа, вс
вс1423:00+23всв34400 0.0 101756
02:00+20в46480 0.0 101786
05:00+19вюв33531 0.0 101632
08:00+22юв234133 0.0 101688
11:00+30юв3426100 0.0 10151057
14:00+34юв341851 0.0 10133048
17:00+35юв2316100 0.0 10113554
20:00+30юв2223100 0.0 101022